ITA225 LICR-HECA

Flight info

Callsign ITA225
Flight time N/A
Altitude 37000
Route BERMI DCT ERNAM DCT SUBOK/N0448F290 M871 ARLOS/N0450F370 DCT METRU M872 NABSI L617 NOZ DCT MENKU DCT CVO
Aircraft A21N/M-SDE2E3FGHIRWXY/LB1

Departure

Time 2026-04-15 17:15
Airport Reggio Calabria Airport (LICR)

Arrival

Time N/A
Airport Cairo International Airport (HECA)
Time Latitude Longitude Altitude Speed Heading
2026-04-15 16:44 38.07410 15.65267 66 ft 0 kts 110°
2026-04-15 17:10 38.07409 15.65267 69 ft 0 kts 111°
2026-04-15 17:10 38.07396 15.65271 68 ft 6 kts 172°
2026-04-15 17:11 38.07360 15.65255 64 ft 11 kts 214°
2026-04-15 17:11 38.07306 15.65156 62 ft 16 kts 249°
2026-04-15 17:11 38.07299 15.65032 56 ft 10 kts 327°
2026-04-15 17:12 38.07512 15.64901 61 ft 30 kts 330°
2026-04-15 17:12 38.07680 15.64786 84 ft 25 kts 333°
2026-04-15 17:12 38.07820 15.64697 93 ft 20 kts 333°
2026-04-15 17:12 38.07930 15.64626 102 ft 15 kts 333°
2026-04-15 17:13 38.08011 15.64574 103 ft 12 kts 333°
2026-04-15 17:13 38.08068 15.64520 105 ft 8 kts 317°
2026-04-15 17:13 38.08079 15.64522 105 ft 2 kts 56°
2026-04-15 17:13 38.08068 15.64539 105 ft 4 kts 150°
2026-04-15 17:14 38.08045 15.64555 104 ft 24 kts 151°
2026-04-15 17:14 38.07649 15.64813 84 ft 104 kts 153°
2026-04-15 17:14 38.06777 15.65386 110 ft 167 kts 152°
2026-04-15 17:14 38.05682 15.66060 590 ft 179 kts 152°
2026-04-15 17:15 38.04501 15.66391 1464 ft 176 kts 182°
2026-04-15 17:15 38.03328 15.65870 2229 ft 189 kts 204°
2026-04-15 17:15 38.02142 15.64952 2673 ft 208 kts 210°
2026-04-15 17:15 38.00910 15.63905 3251 ft 215 kts 210°
2026-04-15 17:16 37.99647 15.62835 3953 ft 224 kts 211°
2026-04-15 17:16 37.98321 15.61721 4688 ft 232 kts 210°
2026-04-15 17:16 37.96961 15.60584 5520 ft 236 kts 211°
2026-04-15 17:16 37.95584 15.59431 6348 ft 239 kts 211°
2026-04-15 17:17 37.94134 15.58222 6749 ft 262 kts 211°
2026-04-15 17:17 37.92550 15.56928 7054 ft 287 kts 210°
2026-04-15 17:17 37.90790 15.55517 7378 ft 312 kts 210°
2026-04-15 17:17 37.88895 15.54004 7805 ft 329 kts 206°
2026-04-15 17:18 37.86713 15.53089 8519 ft 333 kts 192°
2026-04-15 17:18 37.84466 15.52285 9365 ft 338 kts 195°
2026-04-15 17:18 37.82207 15.51419 10208 ft 340 kts 195°
2026-04-15 17:18 37.79939 15.50515 10988 ft 343 kts 196°
2026-04-15 17:19 37.77661 15.49581 11765 ft 345 kts 196°
2026-04-15 17:19 37.75370 15.48627 12520 ft 348 kts 197°
2026-04-15 17:19 37.73065 15.47659 13278 ft 350 kts 197°
2026-04-15 17:19 37.70774 15.46628 13981 ft 353 kts 199°
2026-04-15 17:20 37.68460 15.45475 14611 ft 357 kts 200°
2026-04-15 17:20 37.66167 15.44310 15223 ft 361 kts 200°
2026-04-15 17:20 37.63829 15.43123 15863 ft 364 kts 200°
2026-04-15 17:20 37.61474 15.41928 16505 ft 367 kts 200°
2026-04-15 17:21 37.59090 15.40734 17112 ft 370 kts 199°
2026-04-15 17:21 37.56619 15.39803 17700 ft 372 kts 191°
2026-04-15 17:21 37.54040 15.39432 18270 ft 375 kts 180°
2026-04-15 17:21 37.51433 15.39700 18766 ft 378 kts 169°
2026-04-15 17:22 37.48900 15.40613 19295 ft 380 kts 159°
2026-04-15 17:22 37.46543 15.42136 19818 ft 383 kts 148°
2026-04-15 17:22 37.44439 15.44219 20319 ft 387 kts 139°
2026-04-15 17:22 37.42546 15.46637 20814 ft 390 kts 134°
2026-04-15 17:23 37.40728 15.49185 21307 ft 393 kts 134°
2026-04-15 17:23 37.38908 15.51758 21797 ft 395 kts 134°
2026-04-15 17:23 37.37038 15.54333 22037 ft 403 kts 135°
2026-04-15 17:23 37.35096 15.56929 22206 ft 412 kts 135°
2026-04-15 17:24 37.33091 15.59555 22408 ft 420 kts 136°
2026-04-15 17:24 37.31043 15.62205 22746 ft 424 kts 136°
2026-04-15 17:24 37.28969 15.64862 23115 ft 426 kts 136°
2026-04-15 17:24 37.26875 15.67518 23483 ft 429 kts 136°
2026-04-15 17:25 37.25480 15.69276 23702 ft 430 kts 137°
2026-04-15 17:25 37.23359 15.71940 24046 ft 431 kts 137°
2026-04-15 17:25 37.21234 15.74599 24389 ft 432 kts 137°
2026-04-15 17:25 37.18403 15.78131 24823 ft 434 kts 137°
2026-04-15 17:26 37.16260 15.80800 25137 ft 435 kts 137°
2026-04-15 17:26 37.14809 15.82606 25336 ft 436 kts 137°
2026-04-15 17:26 37.12655 15.85285 25641 ft 437 kts 137°
2026-04-15 17:26 37.10498 15.87967 25929 ft 438 kts 138°
2026-04-15 17:27 37.08330 15.90659 26173 ft 440 kts 138°
2026-04-15 17:27 37.06153 15.93362 26442 ft 441 kts 138°
2026-04-15 17:27 37.03975 15.96064 26711 ft 442 kts 138°
2026-04-15 17:27 37.01789 15.98776 26970 ft 443 kts 138°
2026-04-15 17:28 36.99600 16.01488 27247 ft 442 kts 138°
2026-04-15 17:28 36.97417 16.04192 27533 ft 442 kts 138°
2026-04-15 17:28 36.95261 16.06857 27764 ft 443 kts 139°
2026-04-15 17:28 36.93064 16.09567 27955 ft 444 kts 139°
2026-04-15 17:29 36.90866 16.12278 28182 ft 444 kts 139°
2026-04-15 17:29 36.88672 16.14983 28470 ft 443 kts 138°
2026-04-15 17:29 36.86624 16.17866 28795 ft 445 kts 131°
2026-04-15 17:29 36.84849 16.21042 29187 ft 443 kts 128°
2026-04-15 17:30 36.83166 16.24223 29800 ft 435 kts 128°
2026-04-15 17:30 36.81518 16.27384 30131 ft 433 kts 128°
2026-04-15 17:30 36.79874 16.30544 30282 ft 435 kts 128°
2026-04-15 17:30 36.78230 16.33717 30433 ft 436 kts 128°
2026-04-15 17:31 36.76592 16.36899 30654 ft 434 kts 128°
2026-04-15 17:31 36.74992 16.40021 30930 ft 432 kts 128°
2026-04-15 17:31 36.73370 16.43171 31049 ft 433 kts 128°
2026-04-15 17:31 36.71741 16.46327 31190 ft 433 kts 128°
2026-04-15 17:32 36.70108 16.49488 31370 ft 433 kts 128°
2026-04-15 17:32 36.68478 16.52640 31545 ft 433 kts 128°
2026-04-15 17:32 36.66846 16.55789 31732 ft 432 kts 128°
2026-04-15 17:32 36.65214 16.58932 31898 ft 432 kts 128°
2026-04-15 17:33 36.63583 16.62069 32076 ft 431 kts 128°
2026-04-15 17:33 36.61950 16.65203 32245 ft 431 kts 128°
2026-04-15 17:33 36.60320 16.68330 32423 ft 430 kts 128°
2026-04-15 17:33 36.58690 16.71453 32513 ft 430 kts 128°
2026-04-15 17:34 36.57056 16.74584 32619 ft 431 kts 128°
2026-04-15 17:34 36.55426 16.77705 32799 ft 430 kts 128°
2026-04-15 17:34 36.53798 16.80822 32957 ft 429 kts 129°
2026-04-15 17:34 36.52179 16.83934 33105 ft 430 kts 127°
2026-04-15 17:35 36.50792 16.87198 33242 ft 436 kts 119°
2026-04-15 17:35 36.49685 16.90729 33366 ft 439 kts 116°
2026-04-15 17:35 36.48657 16.94305 33485 ft 440 kts 116°
2026-04-15 17:35 36.47669 16.97894 33608 ft 440 kts 115°
2026-04-15 17:36 36.46694 17.01498 33738 ft 440 kts 115°
2026-04-15 17:36 36.45719 17.05095 33827 ft 439 kts 115°
2026-04-15 17:36 36.44727 17.08673 34029 ft 436 kts 115°
2026-04-15 17:36 36.43723 17.12228 34055 ft 436 kts 115°
2026-04-15 17:37 36.42715 17.15785 33944 ft 437 kts 115°
2026-04-15 17:37 36.41711 17.19352 33933 ft 438 kts 115°
2026-04-15 17:37 36.39719 17.26505 33933 ft 438 kts 115°
2026-04-15 17:38 36.37752 17.33606 33933 ft 438 kts 115°
2026-04-15 17:38 36.35768 17.40746 33907 ft 438 kts 115°
2026-04-15 17:39 36.33764 17.47903 33939 ft 441 kts 115°
2026-04-15 17:39 36.31748 17.55111 33938 ft 442 kts 115°
2026-04-15 17:40 36.29734 17.62317 33941 ft 442 kts 115°
2026-04-15 17:40 36.27712 17.69514 33941 ft 442 kts 115°
2026-04-15 17:41 36.25683 17.76711 33936 ft 442 kts 115°
2026-04-15 17:41 36.23634 17.83931 33945 ft 446 kts 115°
2026-04-15 17:42 36.21582 17.91177 33947 ft 446 kts 115°
2026-04-15 17:42 36.19526 17.98430 33946 ft 446 kts 115°
2026-04-15 17:43 36.17466 18.05667 33952 ft 446 kts 115°
2026-04-15 17:43 36.15399 18.12903 33951 ft 446 kts 115°
2026-04-15 17:44 36.13340 18.20091 33954 ft 446 kts 115°
2026-04-15 17:44 36.11266 18.27313 33954 ft 446 kts 115°
2026-04-15 17:45 36.09187 18.34531 33954 ft 446 kts 115°
2026-04-15 17:45 36.07104 18.41748 33954 ft 446 kts 115°
2026-04-15 17:46 36.05026 18.48943 33954 ft 443 kts 114°
2026-04-15 17:46 36.02952 18.56096 33955 ft 442 kts 114°
2026-04-15 17:47 36.00873 18.63233 33960 ft 441 kts 114°
2026-04-15 17:47 35.98790 18.70365 33961 ft 441 kts 114°
2026-04-15 17:48 35.96701 18.77501 33960 ft 443 kts 115°
2026-04-15 17:48 35.94604 18.84654 33958 ft 443 kts 114°
2026-04-15 17:49 35.92508 18.91795 33964 ft 442 kts 114°
2026-04-15 17:49 35.90405 18.98932 33969 ft 442 kts 114°
2026-04-15 17:50 35.88300 19.06057 33966 ft 442 kts 114°
2026-04-15 17:50 35.86191 19.13197 33952 ft 442 kts 114°
2026-04-15 17:51 35.84094 19.20327 33971 ft 442 kts 114°
2026-04-15 17:51 35.81995 19.27456 33975 ft 442 kts 114°
2026-04-15 17:52 35.79902 19.34543 33978 ft 443 kts 114°
2026-04-15 17:52 35.77792 19.41663 33972 ft 443 kts 114°
2026-04-15 17:53 35.75676 19.48792 33968 ft 442 kts 115°
2026-04-15 17:53 35.73556 19.55914 33974 ft 442 kts 115°
2026-04-15 17:54 35.71432 19.63025 33975 ft 443 kts 115°
2026-04-15 17:54 35.69317 19.70089 33974 ft 443 kts 115°
2026-04-15 17:55 35.67187 19.77192 33974 ft 443 kts 115°
2026-04-15 17:55 35.65041 19.84299 33970 ft 443 kts 115°
2026-04-15 17:56 35.62871 19.91402 33977 ft 444 kts 116°
2026-04-15 17:56 35.60698 19.98500 33970 ft 444 kts 116°
2026-04-15 17:57 35.58518 20.05605 33967 ft 444 kts 116°
2026-04-15 17:57 35.56333 20.12711 33968 ft 444 kts 116°
2026-04-15 17:58 35.54135 20.19822 33976 ft 447 kts 115°
2026-04-15 17:58 35.51931 20.26946 33975 ft 449 kts 115°
2026-04-15 17:59 35.49716 20.34120 33972 ft 449 kts 115°
2026-04-15 17:59 35.47494 20.41289 33968 ft 449 kts 115°
2026-04-15 18:00 35.45266 20.48450 33962 ft 449 kts 115°
2026-04-15 18:00 35.43034 20.55603 33973 ft 448 kts 115°
2026-04-15 18:01 35.40804 20.62737 33974 ft 448 kts 115°
2026-04-15 18:01 35.38570 20.69861 33974 ft 448 kts 115°
2026-04-15 18:02 35.36330 20.76987 33977 ft 448 kts 115°
2026-04-15 18:02 35.34087 20.84105 33975 ft 448 kts 115°
2026-04-15 18:03 35.31840 20.91219 33979 ft 448 kts 115°
2026-04-15 18:03 35.29590 20.98329 33981 ft 448 kts 115°
2026-04-15 18:04 35.27332 21.05447 33984 ft 448 kts 115°
2026-04-15 18:04 35.25073 21.12548 33984 ft 448 kts 115°
2026-04-15 18:05 35.22804 21.19656 33985 ft 449 kts 116°
2026-04-15 18:05 35.20522 21.26788 33985 ft 451 kts 116°
2026-04-15 18:06 35.18239 21.33925 33988 ft 450 kts 116°
2026-04-15 18:06 35.15951 21.41055 33991 ft 450 kts 116°
2026-04-15 18:07 35.13661 21.48171 33990 ft 450 kts 116°